Theta_e
315 314 315 314 314 314 314 314 314 314 314 314 314 314 314 314 314 313 313 313 313 313 313 313 313 313 313 313 314 315 317 320 320 319 319 319 320 320 320 320 320 320
314 314 314 314 314 314 314 314 314 314 314 314 313 314 314 313 313 313 313 313 313 313 313 313 313 313 313 313 313 314 314 315 317 317 317 317 317 318 318 318 317 318
314 314 314 314 314 314 314 314 314 314 314 314 314 314 313 313 313 313 313 313 313 313 312 313 313 313 313 313 313 313 314 314 314 315 315 315 316 316 317 317 317 317
314 314 314 314 314 314 314 314 314 314 314 313 314 313 314 314 313 313 313 313 313 313 313 312 312 312 312 312 312 312 313 313 313 313 314 314 314 314 314 315 315 316
314 314 314 314 314 314 314 314 314 314 314 313 313 313 313 313 313 313 313 313 313 313 313 313 313 312 312 312 312 312 312 312 312 312 312 313 313 313 313 313 313 313
314 314 314 314 314 314 314 314 313 313 313 313 312 312 312 312 312 312 312 312 312 312 312 312 312 313 312 312 312 312 312 312 312 312 312 312 312 312 312 312 312 312
314 314 314 314 314 314 313 313 313 312 312 312 312 312 312 312 312 312 312 312 312 312 312 312 312 312 312 312 312 312 312 312 312 312 312 312 312 312 311 312 311 311
313 313 313 313 313 313 313 312 312 312 312 312 311 311 311 311 311 311 311 311 311 311 311 311 311 312 312 312 312 312 312 312 312 312 312 312 312 312 312 311 311 311
313 313 313 313 313 312 312 312 312 311 311 310 310 310 310 309 309 309 309 309 309 309 310 310 310 310 311 311 311 311 311 311 311 311 311 312 311 312 312 311 311 311
313 312 312 312 312 312 312 311 310 310 309 309 308 307 307 306 306 306 305 305 306 306 306 307 308 308 309 309 309 310 310 310 310 310 310 311 311 311 311 311 311 311
312 311 311 311 311 311 310 309 308 307 306 306 305 304 304 303 303 303 303 303 303 303 303 303 304 305 306 306 307 308 308 309 309 309 310 310 310 310 310 310 310 310
311 311 310 310 310 309 308 307 306 305 304 304 303 303 303 303 302 302 302 302 302 302 302 302 302 302 302 303 303 304 304 305 305 306 307 307 308 308 309 309 310 310
310 309 308 308 307 307 306 304 304 303 303 303 303 303 303 302 302 301 301 301 300 300 300 300 300 301 301 301 301 301 301 302 302 302 302 303 303 304 305 306 306 307
308 307 306 306 305 304 303 303 303 303 303 303 303 303 303 302 301 300 299 299 298 298 298 298 298 299 299 299 299 299 300 300 300 300 300 300 301 301 301 302 302 302
305 304 304 303 303 303 302 302 303 303 303 303 303 303 302 300 298 298 298 297 297 297 297 297 297 297 297 297 297 297 297 297 297 297 298 298 298 299 299 299 300 300
303 303 303 303 302 303 303 303 303 303 303 303 302 301 299 298 297 297 297 297 297 297 297 297 296 296 296 296 296 296 296 296 296 296 296 296 296 296 297 297 297 298
302 302 302 302 302 302 303 302 302 302 301 300 299 298 297 297 297 297 297 297 297 297 297 297 296 296 296 295 295 295 295 295 295 295 295 295 295 295 296 296 296 296
302 302 302 302 301 301 300 300 299 298 298 297 297 297 297 297 297 297 297 296 296 297 297 297 296 296 296 295 295 295 295 295 295 295 295 295 295 295 295 295 295 295
301 301 300 299 298 298 297 297 296 296 296 296 296 296 296 296 296 296 296 296 296 296 296 296 296 296 296 295 295 295 295 294 295 295 295 295 295 295 295 295 295 295
299 298 297 297 296 296 296 296 296 296 296 296 296 296 296 296 296 296 296 296 296 296 296 296 296 295 295 295 295 295 294 294 294 294 294 294 294 294 294 294 294 294
296 296 296 296 296 296 295 296 296 296 296 296 296 296 296 296 296 296 296 295 295 295 295 295 295 295 295 295 295 294 294 294 294 294 294 294 294 294 294 294 294 294
296 295 296 295 295 296 296 295 295 295 295 295 295 295 295 295 295 295 295 295 295 295 295 295 295 295 295 295 294 294 294 294 294 294 294 294 294 294 293 293 293 293
295 295 295 295 295 295 295 295 295 295 295 295 295 295 295 295 295 295 295 294 294 294 294 294 295 294 294 294 294 294 294 293 293 293 293 293 293 293 293 293 293 293
295 295 295 295 295 295 295 294 294 294 294 294 294 294 294 294 294 294 294 294 294 294 294 294 294 294 294 293 294 294 293 293 293 293 293 293 293 293 293 292 293 292
295 294 294 294 294 294 294 294 294 294 294 294 294 294 294 294 293 293 294 293 293 293 293 293 293 293 293 292 292 292 292 292 292 292 292 292 292 292 292 292 292 292
294 294 294 294 294 294 294 294 294 294 294 293 293 293 293 293 293 292 292 293 293 292 292 292 292 292 292 291 291 291 291 291 290 290 291 291 291 291 291 292 292 292
Wind_Speed
3 1 1 2 4 5 6 7 8 9 10 11 12 12 13 14 15 17 18 19 20 21 23 24 25 27 27 29 29 29 30 31 34 36 37 38 39 40 40 41 41 40
1 2 3 4 5 6 7 8 9 9 10 11 12 12 13 14 15 16 17 18 19 20 21 23 24 25 26 27 28 28 29 31 33 34 36 37 37 39 40 40 39 39
2 3 4 5 6 7 8 9 9 10 11 11 12 12 12 13 14 14 15 16 17 17 19 20 22 23 24 25 26 27 28 29 30 30 32 33 34 35 37 37 38 38
3 4 5 6 7 7 8 8 9 9 10 10 11 11 11 12 12 13 14 14 15 15 16 17 19 21 22 23 24 26 27 28 29 29 30 31 31 33 33 34 36 37
5 5 6 6 7 7 7 7 7 7 8 8 8 9 10 11 12 12 13 14 14 14 14 15 16 17 19 21 22 24 25 26 27 28 30 30 30 31 32 33 34 35
5 5 6 6 6 6 6 5 5 5 5 6 7 8 10 11 12 13 13 14 15 15 15 15 16 16 17 18 19 21 22 24 25 27 28 30 30 30 31 32 34 35
4 4 4 4 4 3 3 3 3 4 5 7 8 9 10 11 12 13 14 15 15 16 17 17 18 18 18 19 19 20 21 22 23 24 26 27 28 29 30 31 34 35
3 3 3 2 2 1 1 1 3 4 6 7 9 10 11 12 13 14 14 15 16 17 18 18 19 20 20 21 22 22 22 22 23 24 25 26 27 28 28 30 32 34
3 2 2 1 1 1 1 3 4 6 7 9 10 11 12 13 14 15 15 16 17 17 18 19 19 20 21 22 23 24 25 25 25 26 27 27 28 28 28 29 30 32
3 2 2 2 1 2 3 5 6 8 9 10 10 11 12 13 14 15 16 17 17 18 19 20 20 21 21 22 23 24 26 26 26 28 28 29 30 30 30 30 31 32
3 2 2 2 3 4 5 7 8 8 9 10 11 12 13 14 15 17 17 18 19 20 20 21 22 22 23 23 24 25 26 27 27 28 29 30 31 31 32 32 33 34
2 2 3 4 5 6 7 7 8 9 9 11 12 13 15 17 18 19 20 21 22 23 23 23 24 25 25 26 27 28 29 30 30 31 31 32 33 33 34 34 35 35
2 3 4 5 6 6 7 8 8 10 11 12 14 16 18 20 22 23 24 24 25 25 25 26 26 26 28 28 29 30 31 32 33 33 34 35 35 36 36 37 38 38
3 4 4 5 6 6 7 8 10 11 13 15 17 19 21 23 24 24 24 24 25 25 25 26 26 27 28 29 30 32 33 34 35 35 36 37 37 38 38 38 39 39
3 4 5 6 7 8 9 11 12 14 16 18 20 22 23 24 23 23 23 24 24 25 26 26 27 28 29 30 31 33 34 36 36 37 37 38 39 39 39 39 39 40
4 5 6 7 9 11 12 14 16 18 19 21 22 23 23 23 23 23 24 25 26 27 27 28 29 30 31 32 33 34 36 38 39 39 39 39 40 41 41 40 40 40
5 7 8 10 12 13 15 17 19 20 21 22 23 23 23 23 24 25 26 28 29 30 30 30 31 32 33 34 35 36 38 40 42 42 42 42 42 43 44 43 42 41
7 9 11 13 15 16 18 19 21 21 22 23 23 23 24 25 27 28 29 30 31 32 33 34 34 34 35 36 37 37 38 41 43 45 45 46 46 46 46 46 45 44
11 13 15 16 18 19 20 21 22 23 24 25 25 26 27 28 29 31 32 32 34 35 36 36 36 37 37 38 39 40 40 42 44 46 47 48 48 48 48 48 48 47
14 16 17 18 19 20 21 22 23 25 26 27 28 29 30 31 31 32 33 34 35 36 37 38 38 38 39 40 41 41 42 43 45 46 48 49 50 50 50 50 50 49
15 16 17 19 20 21 22 24 25 26 28 29 30 31 32 32 33 34 35 35 36 38 39 40 40 40 40 41 42 43 44 45 46 48 49 50 51 51 51 52 51 51
16 18 19 21 22 24 25 26 27 28 29 30 31 32 33 34 35 36 37 37 38 39 41 42 42 42 42 43 44 45 45 47 48 49 50 51 53 53 52 52 52 51
18 20 21 23 24 25 26 27 28 29 30 31 33 34 34 35 36 37 38 39 40 41 42 44 44 44 44 45 45 46 47 48 49 50 51 52 53 53 53 54 53 52
20 22 23 24 25 26 27 28 29 30 31 32 33 35 36 37 38 39 40 41 42 42 44 46 47 46 47 48 48 49 50 51 51 52 53 53 54 54 54 54 54 53
22 23 24 25 26 27 27 28 29 30 32 33 34 36 38 39 40 42 43 43 44 44 45 47 48 49 48 49 49 50 51 52 52 53 55 55 55 56 56 56 55 55
22 23 24 25 26 27 28 29 30 32 33 34 36 37 39 40 41 43 44 45 45 46 46 47 48 49 49 49 49 48 49 50 51 52 54 55 55 56 58 58 58 56
Wind_Direction
102 74 15 344 324 317 314 313 313 314 315 314 316 317 317 316 313 309 305 303 302 298 294 290 286 282 279 276 273 270 267 265 268 270 269 270 271 272 273 274 275 275
67 8 343 329 322 319 317 317 319 321 323 322 324 327 326 325 323 320 317 314 310 307 303 299 296 292 289 285 282 278 274 270 270 271 272 273 274 275 277 279 280 280
349 333 328 321 318 318 317 320 322 323 325 325 326 329 330 330 329 327 326 323 320 316 311 306 303 299 295 291 287 285 283 280 278 276 274 274 275 275 276 277 278 279
320 316 316 314 314 315 316 319 321 322 323 324 326 330 333 334 334 334 334 333 330 327 322 316 312 308 302 298 294 291 290 287 286 284 281 279 277 276 275 275 274 274
310 312 313 314 315 317 318 319 322 325 326 330 336 341 345 347 345 344 343 342 341 337 333 328 321 316 311 306 301 297 295 293 291 288 286 285 283 280 279 278 276 275
308 311 312 315 317 317 322 327 334 342 345 350 355 356 355 353 349 346 343 342 341 338 337 334 330 326 319 314 310 306 302 299 297 294 291 290 288 285 283 282 280 279
309 311 310 313 318 320 332 349 1 1 358 355 352 349 345 342 339 337 336 335 335 333 333 332 330 328 325 321 318 315 311 307 303 300 297 295 294 292 290 288 286 284
315 314 310 307 310 311 338 354 349 344 340 339 337 336 335 333 332 332 332 332 331 330 329 329 328 327 325 324 321 319 317 314 311 308 306 304 302 300 299 296 293 291
297 289 271 239 230 241 290 313 324 328 332 335 337 338 338 337 337 337 337 336 335 333 332 330 328 326 324 322 321 319 317 316 315 314 312 311 309 307 306 303 300 299
228 222 220 222 244 285 315 326 333 338 341 344 346 346 346 346 345 344 343 341 340 338 336 334 331 328 326 323 321 319 317 317 316 314 314 313 312 311 310 308 305 304
202 219 251 288 313 326 333 338 342 346 349 349 349 349 347 346 344 342 340 339 338 336 335 334 332 330 328 325 323 321 319 318 318 316 315 314 313 313 312 311 309 307
240 284 306 321 331 334 337 341 344 345 346 345 344 343 341 339 337 335 334 333 332 331 331 330 329 327 326 325 323 321 320 319 318 317 316 316 315 314 314 313 313 312
297 317 326 333 335 335 337 339 339 338 338 338 337 337 335 334 333 331 330 329 328 327 327 326 325 323 322 321 320 319 317 316 316 315 314 314 314 313 314 313 313 313
307 322 327 330 330 330 331 330 330 331 330 331 331 331 331 330 329 328 326 326 326 325 325 325 324 323 321 320 319 318 316 315 314 313 312 312 311 311 312 311 311 311
302 315 319 320 319 319 319 319 321 322 323 324 324 325 326 326 325 325 325 325 326 326 326 326 326 325 324 324 323 321 319 317 315 314 314 313 312 311 310 310 310 309
303 310 312 314 313 313 313 314 314 315 316 318 319 320 321 322 323 324 324 325 325 326 326 327 328 328 328 327 327 325 322 320 318 318 317 316 315 314 313 312 311 310
304 308 310 311 312 312 312 312 312 312 313 315 316 318 320 321 322 323 324 325 325 324 325 325 327 328 328 328 328 327 325 322 320 320 319 318 317 316 315 314 313 312
309 313 315 315 316 316 315 315 315 315 316 318 319 321 322 323 323 324 324 324 323 323 323 323 324 326 326 326 326 326 325 322 320 320 319 319 318 317 317 316 315 314
320 321 322 321 321 321 320 320 321 321 321 322 323 323 323 323 323 323 323 323 322 321 321 321 322 323 323 323 323 324 324 322 320 319 318 317 317 317 317 316 316 315
326 325 325 324 324 323 323 323 323 323 322 321 321 321 321 321 321 321 320 320 320 320 319 318 320 321 321 322 321 322 322 320 318 317 316 315 315 315 315 315 315 315
326 325 325 324 324 324 324 323 322 321 320 319 319 320 320 320 319 319 319 319 319 319 318 317 318 320 320 320 320 321 320 318 317 315 314 313 313 313 314 313 313 313
326 325 325 324 324 323 323 322 321 320 320 319 319 319 319 319 319 318 319 319 319 319 318 316 316 318 319 318 318 318 317 316 315 314 312 311 310 311 311 311 310 311
327 327 326 325 324 322 321 321 321 321 320 320 319 319 319 319 318 318 318 318 318 318 318 315 314 315 316 316 315 316 316 314 313 312 310 309 308 308 308 308 307 308
328 328 327 325 323 322 321 322 321 321 321 320 320 319 319 319 318 317 317 317 317 317 316 314 313 313 314 314 313 313 313 312 311 310 308 307 307 306 306 306 305 306
328 327 325 322 321 321 321 321 321 320 320 320 319 319 318 318 318 317 316 315 315 315 314 312 312 311 311 311 311 311 311 310 310 308 306 306 306 304 303 303 303 304
324 322 320 319 318 318 319 319 319 319 319 318 318 318 317 316 316 316 314 313 312 312 312 311 311 310 309 309 310 310 311 311 310 309 308 307 305 304 302 301 301 302